Regional Weather Roundup
Issued by NWS

Home | Current Version | Previous Version | Text Only | Print | Product List | Glossary Off
Versions: 1 2 3 4 5 6 7 8 9 10 11 12 13 14 15 16 17 18 19 20 21 22 23 24 25 26 27 28 29 30 31 32 33 34 35 36 37 38 39 40 41 42 43 44 45 46 47 48 49 50

000
ASUS43 KIND 301309
RWRIN

WEATHER ROUNDUP FOR INDIANA
NATIONAL WEATHER SERVICE INDIANAPOLIS IN
900 AM EDT SAT APR 30 2016

NOTE: "FAIR" INDICATES FEW OR NO CLOUDS BELOW 12,000 FEET WITH NO
SIGNIFICANT WEATHER AND/OR OBSTRUCTIONS TO VISIBILITY.

* - STATION DOES NOT REPORT WEATHER SUCH AS PRECIPITATION OR FOG.

+ - STATION NOT QUALITY CONTROLLED BY THE NATIONAL WEATHER SERVICE.
    USE DATA WITH CAUTION...ESPECIALLY DEWPOINT AND RELATIVE
    HUMIDITY OBSERVATIONS.

INZ001>003-010>013-019-020-301400-
NORTHWEST INDIANA

CITY           SKY/WX    TMP DP  RH WIND       PRES   REMARKS
GARY /AIRPORT/ CLOUDY    50  46  87 E9        30.05F
KNOX *+        CLOUDY    45  34  65 E9        30.05F
LA PORTE +     PTSUNNY   48  40  73 E16       30.07F
MICHIGAN CITY+ CLOUDY    46  37  71 E5        30.07F
MONTICELLO +   DRIZZLE   48  42  77 E9G16     30.02F
RENSSELAER +   LGT RAIN  46  45  93 E16       30.03F
VALPARAISO     PTSUNNY   46  40  79 E12       30.06F

$$

LMZ046-743>745-301400-
SOUTHERN LAKE MICHIGAN

STATION/POSITION TIME  TEMP    WIND        PRES    WAVE
                       AIR SEA DIR/SP/G            HT
                 (UTC) (F)     (DEG/KT/KT) (MB)    (FT)
BURNS HARBOR     1304   48     100/ 12/ 17 1018.3F
MICHIGAN CITY    1220   47      80/  9/ 12   N/A

$$

INZ004-005-014>016-021>024-301400-
NORTH CENTRAL INDIANA

CITY           SKY/WX    TMP DP  RH WIND       PRES   REMARKS
ELKHART        CLOUDY    46  39  76 E9        30.10F
GOSHEN         MOSUNNY   47  35  63 E9        30.10S
LOGANSPORT +   LGT RAIN  46  43  87 E10       30.05F
PERU/GRISSOM   CLOUDY    48  43  84 E13       30.03S
ROCHESTER +    CLOUDY    46  43  87 E10G18    30.07S
SOUTH BEND     PTSUNNY   46  35  65 E10       30.09F
WARSAW +       CLOUDY    45  34  65 E10G18    30.08F

$$

INZ006>009-017-018-025>027-301400-
NORTHEAST INDIANA

CITY           SKY/WX    TMP DP  RH WIND       PRES   REMARKS
ANGOLA *+      SUNNY     45  34  65 E10       30.11S
AUBURN +       PTSUNNY   45  34  65 E10       30.10F
FORT WAYNE     PTSUNNY   44  38  79 E12       30.10S
HUNTINGTON +   CLOUDY    44  40  85 E10       30.07F

$$

INZ028-029-035-036-043>045-051>053-301400-
WEST CENTRAL INDIANA

CITY           SKY/WX    TMP DP  RH WIND       PRES   REMARKS
CRAWFORDSVL +  RAIN      49  49 100 E7        29.99S
GREENCASTLE +  LGT RAIN  50  50 100 E9        30.00R
LAFAYETTE      LGT RAIN  49  45  86 E13       30.00F FOG
TERRE HAUTE    RAIN      54  51  90 SE10      29.98R FOG

$$

INZ030>032-037>040-046>048-054>057-064-065-301400-
CENTRAL INDIANA

CITY           SKY/WX    TMP DP  RH WIND       PRES   REMARKS
ANDERSON       CLOUDY    50  43  76 E12       30.04
CP ATTERBURY + DRIZZLE   52  50  93 NE5       30.00S
COLUMBUS       CLOUDY    52  52 100 NE9       29.99F FOG
FISHERS *+     CLOUDY    48  46  93 NE6       30.01F
FRANKFORT +    LGT RAIN  50  39  65 E16G22    30.02F
INDIANAPOLIS   LGT RAIN  51  47  86 E12       29.99S FOG
-EAGLE CREEK   RAIN      51  47  86 E9        29.99S FOG
KOKOMO *+      CLOUDY    46  41  81 E14       30.04F
MARION +       CLOUDY    47  42  84 E9        30.06S
SHELBYVILLE    LGT RAIN  53  47  79 E10       30.00R
ZIONSVILLE +   LGT RAIN  49  45  84 E8        30.03R

$$

INZ033-034-041-042-049-050-058-059-301400-
EAST CENTRAL INDIANA

CITY           SKY/WX    TMP DP  RH WIND       PRES   REMARKS
MUNCIE         CLOUDY    50  43  77 E8        30.04F

$$

INZ060-061-067>069-081>083-085>088-301400-
SOUTHWEST INDIANA

CITY           SKY/WX    TMP DP  RH WIND       PRES   REMARKS
EVANSVILLE     HVY RAIN  58  56  93 NE5       29.92F FOG
HUNTINGBURG *+ CLOUDY    57  54  88 E8        29.95F
WASHINGTON +   LGT RAIN  57  57 100 E8        29.95F

$$

INZ062-063-066-070>080-084-089>092-301400-
SOUTH CENTRAL AND SOUTHEAST INDIANA

CITY           SKY/WX    TMP DP  RH WIND       PRES   REMARKS
BLOOMINGTON    LGT RAIN  54  51  90 E8        29.98R FOG
MADISON *+     CLOUDY    54  50  87 E8        29.99F
NORTH VERNON + LGT RAIN N/A N/A N/A CALM      29.98F
SEYMOUR +      CLOUDY    57  52  82 E7        29.98S

$$





USA.gov is the U.S. government's official web portal to all federal, state and local government web resources and services.